Time,TemperatureF,DewpointF,PressureIn,WindDirection,WindDirectionDegrees,WindSpeedMPH,WindSpeedGustMPH,Humidity,HourlyPrecipIn,Conditions,Clouds,dailyrainin,SoftwareType,DateUTC
2013-05-11 07:38:00,61.2,60.6,28.64,SSW,202,0.0,0.0,98,0.00,,-RA,0.00,VWS V14.01,2013-05-11 11:38:00,
2013-05-11 07:39:00,61.2,60.6,28.64,SSW,202,0.0,0.0,98,0.00,,-RA,0.00,VWS V14.01,2013-05-11 11:39:00,
2013-05-11 07:45:00,61.5,61.0,28.64,SSW,202,0.0,0.0,98,0.00,,-RA,0.00,VWS V14.01,2013-05-11 11:45:00,
2013-05-11 07:50:00,61.7,61.1,28.64,SSW,202,0.0,0.0,98,0.00,,-RA,0.00,VWS V14.01,2013-05-11 11:50:00,
2013-05-11 07:55:00,61.7,61.1,28.64,SSW,202,0.0,0.0,98,0.00,,-RA,0.00,VWS V14.01,2013-05-11 11:55:00,
2013-05-11 08:00:00,61.9,61.3,28.64,SSW,202,0.0,0.0,98,0.00,,-RA,0.00,VWS V14.01,2013-05-11 12:00:00,
2013-05-11 08:05:00,61.9,61.3,28.64,SSW,202,0.0,0.0,98,0.00,,OVC110,0.00,VWS V14.01,2013-05-11 12:05:00,
2013-05-11 08:10:00,62.2,61.7,28.64,SSW,202,0.0,0.0,98,0.00,,OVC110,0.00,VWS V14.01,2013-05-11 12:10:00,
2013-05-11 08:15:00,62.4,61.8,28.64,SSW,202,0.0,0.0,98,0.00,,OVC110,0.00,VWS V14.01,2013-05-11 12:15:00,
2013-05-11 08:20:00,62.4,61.8,28.64,SSW,202,0.0,0.0,98,0.00,,OVC110,0.00,VWS V14.01,2013-05-11 12:20:00,
2013-05-11 08:25:00,62.4,61.8,28.64,SSW,202,0.0,0.0,98,0.00,,OVC110,0.00,VWS V14.01,2013-05-11 12:25:00,
2013-05-11 08:30:00,62.4,61.8,28.64,SSW,202,0.0,0.0,98,0.00,,OVC110,0.00,VWS V14.01,2013-05-11 12:30:00,
2013-05-11 08:35:00,62.6,62.0,28.64,SSW,202,0.0,0.0,98,0.00,,OVC110,0.00,VWS V14.01,2013-05-11 12:35:00,
2013-05-11 08:40:00,62.6,62.0,28.64,SSW,202,0.0,0.0,98,0.00,,OVC110,0.00,VWS V14.01,2013-05-11 12:40:00,
2013-05-11 08:45:00,62.8,62.2,28.64,SSW,202,0.0,0.0,98,0.00,,OVC110,0.00,VWS V14.01,2013-05-11 12:45:00,
2013-05-11 08:51:00,62.8,62.2,28.64,SSW,202,0.0,0.0,98,0.00,,OVC110,0.00,VWS V14.01,2013-05-11 12:51:00,
2013-05-11 08:56:00,62.8,62.2,28.64,SSW,202,0.0,0.0,98,0.00,,OVC110,0.00,VWS V14.01,2013-05-11 12:56:00,
2013-05-11 09:01:00,63.0,62.4,28.64,SSW,202,0.0,0.0,98,0.00,,OVC110,0.20,VWS V14.01,2013-05-11 13:01:00,
2013-05-11 09:06:00,63.1,62.6,28.64,SSW,202,0.0,0.0,98,0.00,,BKN100,0.00,VWS V14.01,2013-05-11 13:06:00,
2013-05-11 09:11:00,63.1,62.6,28.64,SSW,202,0.0,0.0,98,0.00,,BKN100,0.00,VWS V14.01,2013-05-11 13:11:00,
2013-05-11 09:16:00,62.4,61.8,28.64,WSW,238,3.1,3.1,98,0.00,,BKN100,0.00,VWS V14.01,2013-05-11 13:16:00,
2013-05-11 09:21:00,62.1,61.2,28.64,SW,230,0.0,2.7,97,0.00,,BKN100,0.00,VWS V14.01,2013-05-11 13:21:00,
2013-05-11 09:26:00,62.6,60.8,28.64,SW,232,4.0,4.0,94,0.00,,BKN100,0.00,VWS V14.01,2013-05-11 13:26:00,
2013-05-11 09:31:00,63.7,56.7,28.64,SW,222,4.9,4.9,78,0.00,,BKN100,0.00,VWS V14.01,2013-05-11 13:31:00,
2013-05-11 09:37:00,64.6,49.5,28.64,SSW,207,5.4,5.8,58,0.00,,BKN100,0.00,VWS V14.01,2013-05-11 13:37:00,
2013-05-11 09:42:00,64.9,48.4,28.64,SW,232,2.7,3.6,55,0.00,,BKN100,0.00,VWS V14.01,2013-05-11 13:42:00,
2013-05-11 09:47:00,65.7,46.0,28.64,SSW,197,6.3,6.3,49,0.00,,BKN100,0.00,VWS V14.01,2013-05-11 13:47:00,
2013-05-11 09:52:00,65.8,46.2,28.64,SSW,212,3.1,5.4,49,0.00,,BKN100,0.00,VWS V14.01,2013-05-11 13:52:00,
2013-05-11 09:57:00,66.0,47.4,28.64,SW,229,0.0,2.2,51,0.00,,BKN100,0.00,VWS V14.01,2013-05-11 13:57:00,
2013-05-11 10:02:00,66.0,45.2,28.64,WNW,302,2.7,8.3,47,0.00,,-RA,0.00,VWS V14.01,2013-05-11 14:02:00,
2013-05-11 10:07:00,66.0,45.2,28.64,WSW,241,2.7,4.0,47,0.00,,-RA,0.00,VWS V14.01,2013-05-11 14:07:00,
2013-05-11 10:12:00,65.8,45.1,28.64,SSW,212,2.7,5.8,47,0.00,,-RA,0.00,VWS V14.01,2013-05-11 14:12:00,
2013-05-11 10:17:00,65.8,45.1,28.64,WSW,247,2.7,4.0,47,0.00,,-RA,0.00,VWS V14.01,2013-05-11 14:17:00,
2013-05-11 10:22:00,65.7,46.0,28.64,SW,223,0.0,2.2,49,0.00,,-RA,0.00,VWS V14.01,2013-05-11 14:22:00,
2013-05-11 10:27:00,65.7,45.5,28.64,SW,225,0.0,3.1,48,0.00,,-RA,0.00,VWS V14.01,2013-05-11 14:27:00,
2013-05-11 10:32:00,65.5,46.4,28.64,South,176,2.7,2.7,50,0.00,,-RA,0.00,VWS V14.01,2013-05-11 14:32:00,
2013-05-11 10:37:00,65.5,49.4,28.64,South,183,0.0,0.0,56,0.00,,-RA,0.00,VWS V14.01,2013-05-11 14:37:00,
2013-05-11 10:42:00,65.5,50.3,28.64,South,183,0.0,0.0,58,0.00,,-RA,0.00,VWS V14.01,2013-05-11 14:42:00,
2013-05-11 10:48:00,65.5,51.2,28.64,South,183,0.0,0.0,60,0.00,,-RA,0.00,VWS V14.01,2013-05-11 14:48:00,
2013-05-11 10:53:00,65.5,50.3,28.64,South,183,0.0,0.0,58,0.00,,-RA,0.00,VWS V14.01,2013-05-11 14:53:00,
2013-05-11 10:58:00,65.5,48.9,28.64,South,181,0.0,0.0,55,0.00,,-RA,0.00,VWS V14.01,2013-05-11 14:58:00,
2013-05-11 11:03:00,65.8,49.2,28.64,South,181,0.0,0.0,55,0.00,,OVC095,0.00,VWS V14.01,2013-05-11 15:03:00,
2013-05-11 11:08:00,66.6,52.3,28.64,South,181,0.0,0.0,60,0.00,,OVC095,0.00,VWS V14.01,2013-05-11 15:08:00,
2013-05-11 11:13:00,67.1,48.4,28.64,ESE,104,0.0,0.0,51,0.00,,OVC095,0.00,VWS V14.01,2013-05-11 15:13:00,
2013-05-11 11:18:00,67.8,49.0,28.64,East,97,0.0,3.1,51,0.00,,OVC095,0.00,VWS V14.01,2013-05-11 15:18:00,
2013-05-11 11:23:00,68.0,46.5,28.64,SW,222,0.0,0.0,46,0.00,,OVC095,0.00,VWS V14.01,2013-05-11 15:23:00,
2013-05-11 11:28:00,68.5,47.0,28.64,SSW,195,0.0,0.0,46,0.00,,OVC095,0.00,VWS V14.01,2013-05-11 15:28:00,
2013-05-11 11:34:00,68.5,45.2,28.64,SSW,209,0.0,0.0,43,0.00,,OVC095,0.00,VWS V14.01,2013-05-11 15:34:00,
2013-05-11 11:39:00,69.3,47.0,28.64,SSW,204,2.2,4.0,45,0.00,,OVC095,0.00,VWS V14.01,2013-05-11 15:39:00,
2013-05-11 11:44:00,70.0,46.5,28.64,SW,224,5.8,5.8,43,0.00,,OVC095,0.00,VWS V14.01,2013-05-11 15:44:00,
2013-05-11 11:49:00,70.0,45.2,28.64,WSW,247,7.6,7.6,41,0.00,,OVC095,0.00,VWS V14.01,2013-05-11 15:49:00,
2013-05-11 11:54:00,70.3,46.2,28.64,West,263,3.6,6.3,42,0.00,,OVC095,0.00,VWS V14.01,2013-05-11 15:54:00,
2013-05-11 11:59:00,71.1,46.2,28.64,SW,221,5.8,5.8,41,0.00,,OVC095,0.00,VWS V14.01,2013-05-11 15:59:00,
2013-05-11 12:04:00,71.4,44.5,28.64,WNW,287,2.7,2.7,38,0.00,,BKN100,0.00,VWS V14.01,2013-05-11 16:04:00,
2013-05-11 12:09:00,70.0,43.2,28.64,SW,227,4.9,4.9,38,0.00,,BKN100,0.00,VWS V14.01,2013-05-11 16:09:00,
2013-05-11 12:14:00,70.3,44.2,28.64,South,175,8.1,8.1,39,0.00,,BKN100,0.00,VWS V14.01,2013-05-11 16:14:00,
2013-05-11 12:19:00,70.9,44.7,28.64,WSW,238,4.0,9.6,39,0.00,,BKN100,0.00,VWS V14.01,2013-05-11 16:19:00,
2013-05-11 12:24:00,71.2,45.7,28.64,SW,221,2.7,2.7,40,0.00,,BKN100,0.00,VWS V14.01,2013-05-11 16:24:00,
2013-05-11 12:29:00,71.1,44.2,28.64,SSW,211,6.3,6.3,38,0.00,,BKN100,0.00,VWS V14.01,2013-05-11 16:29:00,
2013-05-11 12:35:00,71.2,45.7,28.64,SW,220,3.1,5.4,40,0.00,,BKN100,0.00,VWS V14.01,2013-05-11 16:35:00,
2013-05-11 12:40:00,72.1,44.5,28.64,SSW,212,5.4,6.7,37,0.00,,BKN100,0.20,VWS V14.01,2013-05-11 16:40:00,
2013-05-11 12:45:00,72.0,44.3,28.64,WSW,239,2.2,3.6,37,0.00,,BKN100,0.00,VWS V14.01,2013-05-11 16:45:00,
2013-05-11 12:50:00,72.1,44.5,28.64,South,176,5.4,8.1,37,0.00,,BKN100,0.00,VWS V14.01,2013-05-11 16:50:00,
2013-05-11 12:55:00,73.0,45.2,28.64,SW,218,4.9,7.6,37,0.00,,BKN100,0.00,VWS V14.01,2013-05-11 16:55:00,
2013-05-11 13:00:00,73.6,45.0,28.64,SW,217,3.1,3.6,36,0.00,,BKN100,0.00,VWS V14.01,2013-05-11 17:00:00,
2013-05-11 13:05:00,72.9,43.6,28.64,West,275,4.0,7.2,35,0.00,,BKN085,0.00,VWS V14.01,2013-05-11 17:05:00,
2013-05-11 13:10:00,72.3,44.6,28.64,West,265,3.1,3.6,37,0.00,,BKN085,0.00,VWS V14.01,2013-05-11 17:10:00,
2013-05-11 13:15:00,70.9,45.4,28.64,West,268,2.2,2.7,40,0.00,,BKN085,0.00,VWS V14.01,2013-05-11 17:15:00,
2013-05-11 13:20:00,69.4,46.6,28.64,WSW,248,2.7,2.7,44,0.04,,BKN085,0.04,VWS V14.01,2013-05-11 17:20:00,
2013-05-11 13:26:00,68.2,48.3,28.64,WNW,287,2.2,3.1,49,0.04,,BKN085,0.04,VWS V14.01,2013-05-11 17:26:00,
2013-05-11 13:31:00,68.2,51.4,28.64,WSW,245,3.6,3.6,55,0.04,,BKN085,0.04,VWS V14.01,2013-05-11 17:31:00,
2013-05-11 13:36:00,68.4,47.9,28.64,SW,233,0.0,2.7,48,0.04,,BKN085,0.04,VWS V14.01,2013-05-11 17:36:00,
2013-05-11 13:41:00,68.5,48.1,28.61,NW,313,3.6,7.6,48,0.04,,BKN085,0.04,VWS V14.01,2013-05-11 17:41:00,
2013-05-11 13:46:00,67.5,47.7,28.61,SSW,212,3.1,4.0,49,0.04,,BKN085,0.04,VWS V14.01,2013-05-11 17:46:00,
2013-05-11 13:51:00,66.6,48.9,28.61,West,264,2.7,2.7,53,0.04,,BKN085,0.04,VWS V14.01,2013-05-11 17:51:00,
2013-05-11 13:56:00,66.0,48.9,28.61,WNW,292,5.4,5.4,54,0.04,,BKN085,0.04,VWS V14.01,2013-05-11 17:56:00,
2013-05-11 14:01:00,65.5,50.3,28.61,West,263,2.7,2.7,58,0.04,,-RA,0.04,VWS V14.01,2013-05-11 18:01:00,
2013-05-11 14:06:00,65.1,50.9,28.61,WSW,253,4.9,4.9,60,0.04,,-RA,0.04,VWS V14.01,2013-05-11 18:06:00,
2013-05-11 14:11:00,65.1,50.5,28.61,WSW,241,4.0,4.0,59,0.04,,-RA,0.04,VWS V14.01,2013-05-11 18:11:00,
2013-05-11 14:16:00,65.7,51.4,28.61,WSW,238,3.1,3.6,60,0.04,,-RA,0.04,VWS V14.01,2013-05-11 18:16:00,
2013-05-11 14:21:00,67.1,53.7,28.61,SW,225,3.1,4.9,62,0.00,,-RA,0.04,VWS V14.01,2013-05-11 18:21:00,
2013-05-11 14:27:00,68.9,53.5,28.61,SW,219,5.4,6.7,58,0.00,,-RA,0.04,VWS V14.01,2013-05-11 18:27:00,
2013-05-11 14:32:00,69.8,49.8,28.61,SW,225,3.1,8.1,49,0.00,,-RA,0.04,VWS V14.01,2013-05-11 18:32:00,
2013-05-11 14:37:00,70.7,50.1,28.61,West,278,2.7,4.0,48,0.00,,-RA,0.04,VWS V14.01,2013-05-11 18:37:00,
2013-05-11 14:42:00,70.9,48.5,28.61,West,278,2.7,3.6,45,0.00,,-RA,0.04,VWS V14.01,2013-05-11 18:42:00,
2013-05-11 14:47:00,71.4,50.2,28.61,West,265,4.0,4.9,47,0.00,,-RA,0.04,VWS V14.01,2013-05-11 18:47:00,
2013-05-11 14:52:00,71.2,49.4,28.61,West,260,2.7,3.6,46,0.00,,-RA,0.04,VWS V14.01,2013-05-11 18:52:00,
2013-05-11 14:57:00,70.3,49.2,28.61,WSW,248,2.2,2.7,47,0.00,,-RA,0.04,VWS V14.01,2013-05-11 18:57:00,
2013-05-11 15:02:00,69.8,52.4,28.61,NE,39,0.0,2.2,54,0.00,,-RA,0.04,VWS V14.01,2013-05-11 19:02:00,
2013-05-11 15:07:00,69.4,50.5,28.61,West,274,4.0,5.4,51,0.00,,-RA,0.04,VWS V14.01,2013-05-11 19:07:00,
2013-05-11 15:12:00,69.4,51.1,28.61,SW,229,4.9,4.9,52,0.00,,-RA,0.04,VWS V14.01,2013-05-11 19:12:00,
2013-05-11 15:17:00,68.9,46.7,28.61,SSW,192,3.1,3.6,45,0.00,,-RA,0.04,VWS V14.01,2013-05-11 19:17:00,
2013-05-11 15:22:00,69.6,50.2,28.61,West,273,2.7,3.6,50,0.00,,-RA,0.04,VWS V14.01,2013-05-11 19:22:00,
2013-05-11 15:27:00,70.2,47.8,28.61,WSW,247,3.6,4.0,45,0.00,,-RA,0.04,VWS V14.01,2013-05-11 19:27:00,
2013-05-11 15:32:00,70.7,47.1,28.61,WSW,257,4.0,4.0,43,0.00,,-RA,0.04,VWS V14.01,2013-05-11 19:32:00,
2013-05-11 15:37:00,71.1,48.1,28.59,WSW,241,2.7,4.0,44,0.00,,-RA,0.04,VWS V14.01,2013-05-11 19:37:00,
2013-05-11 15:42:00,71.2,47.0,28.59,SSW,213,4.0,4.0,42,0.00,,-RA,0.04,VWS V14.01,2013-05-11 19:42:00,
2013-05-11 15:47:00,71.8,47.5,28.59,WSW,258,2.7,2.7,42,0.00,,-RA,0.04,VWS V14.01,2013-05-11 19:47:00,
2013-05-11 15:52:00,72.7,47.7,28.59,WNW,287,3.6,7.2,41,0.00,,-RA,0.04,VWS V14.01,2013-05-11 19:52:00,
2013-05-11 15:57:00,73.2,48.1,28.59,SW,220,3.1,3.1,41,0.00,,-RA,0.04,VWS V14.01,2013-05-11 19:57:00,
2013-05-11 16:02:00,73.9,46.8,28.59,West,262,2.7,2.7,38,0.00,,SCT100,0.04,VWS V14.01,2013-05-11 20:02:00,
2013-05-11 16:07:00,74.5,47.2,28.59,WNW,290,2.7,3.6,38,0.00,,SCT100,0.04,VWS V14.01,2013-05-11 20:07:00,
2013-05-11 16:12:00,74.8,45.4,28.59,WNW,287,2.2,4.0,35,0.00,,SCT100,0.04,VWS V14.01,2013-05-11 20:12:00,
2013-05-11 16:17:00,75.2,45.7,28.59,West,263,3.1,3.1,35,0.00,,SCT100,0.04,VWS V14.01,2013-05-11 20:17:00,
2013-05-11 16:23:00,75.2,44.2,28.59,SW,217,3.1,3.1,33,0.00,,SCT100,0.04,VWS V14.01,2013-05-11 20:23:00,
2013-05-11 16:28:00,75.4,45.1,28.59,WNW,282,3.1,3.6,34,0.00,,SCT100,0.04,VWS V14.01,2013-05-11 20:28:00,
2013-05-11 16:33:00,74.8,44.6,28.59,WSW,254,2.7,4.0,34,0.00,,SCT100,0.04,VWS V14.01,2013-05-11 20:33:00,
2013-05-11 16:38:00,74.5,45.1,28.59,SW,227,3.6,3.6,35,0.00,,SCT100,0.04,VWS V14.01,2013-05-11 20:38:00,
2013-05-11 16:43:00,74.1,44.8,28.59,West,274,2.7,2.7,35,0.00,,SCT100,0.04,VWS V14.01,2013-05-11 20:43:00,
2013-05-11 16:48:00,73.9,44.6,28.59,WSW,249,3.1,3.1,35,0.00,,SCT100,0.04,VWS V14.01,2013-05-11 20:48:00,
2013-05-11 16:53:00,73.6,45.7,28.59,SW,224,4.0,4.0,37,0.00,,SCT100,0.04,VWS V14.01,2013-05-11 20:53:00,
2013-05-11 16:58:00,73.9,45.3,28.59,SW,236,0.0,0.0,36,0.00,,SCT100,0.04,VWS V14.01,2013-05-11 20:58:00,
2013-05-11 17:03:00,74.3,42.6,28.59,NNW,333,0.0,0.0,32,0.00,,SCT100,0.04,VWS V14.01,2013-05-11 21:03:00,
2013-05-11 17:08:00,74.5,44.3,28.56,West,268,2.7,2.7,34,0.00,,SCT100,0.04,VWS V14.01,2013-05-11 21:08:00,
2013-05-11 17:14:00,74.3,44.9,28.56,WNW,290,0.0,3.1,35,0.00,,SCT100,0.04,VWS V14.01,2013-05-11 21:14:00,
2013-05-11 17:19:00,74.3,44.9,28.56,SW,223,2.2,2.7,35,0.00,,SCT100,0.04,VWS V14.01,2013-05-11 21:19:00,
2013-05-11 17:24:00,74.5,42.7,28.56,SW,225,2.7,3.6,32,0.00,,SCT100,0.04,VWS V14.01,2013-05-11 21:24:00,
2013-05-11 17:29:00,74.3,42.6,28.56,WSW,257,3.1,4.0,32,0.00,,SCT100,0.04,VWS V14.01,2013-05-11 21:29:00,
2013-05-11 17:34:00,74.1,43.2,28.56,SW,223,2.2,2.7,33,0.00,,SCT055,0.04,VWS V14.01,2013-05-11 21:34:00,
2013-05-11 17:39:00,74.5,42.7,28.56,SW,235,3.6,3.6,32,0.00,,SCT055,0.04,VWS V14.01,2013-05-11 21:39:00,
2013-05-11 17:44:00,74.5,41.9,28.56,SSW,208,4.0,4.0,31,0.00,,SCT055,0.04,VWS V14.01,2013-05-11 21:44:00,
2013-05-11 17:49:00,74.3,41.7,28.56,SW,225,3.1,3.1,31,0.00,,SCT055,0.04,VWS V14.01,2013-05-11 21:49:00,
2013-05-11 17:54:00,74.1,41.6,28.56,SSW,207,4.9,4.9,31,0.00,,SCT055,0.04,VWS V14.01,2013-05-11 21:54:00,
2013-05-11 17:59:00,73.8,42.1,28.56,SSW,201,3.1,4.0,32,0.00,,SCT055,0.04,VWS V14.01,2013-05-11 21:59:00,
2013-05-11 18:04:00,73.8,42.1,28.56,SSW,192,2.2,2.2,32,0.00,,SCT055,0.04,VWS V14.01,2013-05-11 22:04:00,
2013-05-11 18:10:00,73.6,43.5,28.56,SSW,192,0.0,0.0,34,0.00,,SCT055,0.04,VWS V14.01,2013-05-11 22:10:00,
2013-05-11 18:15:00,73.4,44.1,28.56,SSW,192,0.0,0.0,35,0.00,,SCT055,0.04,VWS V14.01,2013-05-11 22:15:00,
2013-05-11 18:20:00,73.2,43.2,28.56,SSW,192,0.0,0.0,34,0.00,,SCT055,0.04,VWS V14.01,2013-05-11 22:20:00,
2013-05-11 18:25:00,70.5,45.1,28.56,WNW,283,7.6,12.3,40,0.04,,SCT055,0.08,VWS V14.01,2013-05-11 22:25:00,
2013-05-11 18:30:00,66.2,46.5,28.56,West,263,3.6,4.9,49,0.04,,SCT055,0.08,VWS V14.01,2013-05-11 22:30:00,
2013-05-11 18:35:00,65.3,51.5,28.56,NW,315,0.0,0.0,61,0.04,,,0.08,VWS V14.01,2013-05-11 22:35:00,
2013-05-11 18:40:00,64.8,52.7,28.59,NW,315,0.0,0.0,65,0.04,,,0.08,VWS V14.01,2013-05-11 22:40:00,
2013-05-11 18:46:00,64.4,52.4,28.59,WNW,287,2.7,2.7,65,0.04,,,0.08,VWS V14.01,2013-05-11 22:46:00,
2013-05-11 18:51:00,63.9,50.6,28.59,WSW,250,2.7,3.6,62,0.04,,,0.08,VWS V14.01,2013-05-11 22:51:00,
2013-05-11 18:56:00,63.9,49.7,28.59,West,263,3.1,3.6,60,0.04,,,0.08,VWS V14.01,2013-05-11 22:56:00,
2013-05-11 19:01:00,63.7,48.6,28.59,WSW,238,5.8,5.8,58,0.04,,,0.08,VWS V14.01,2013-05-11 23:01:00,
2013-05-11 19:06:00,63.9,48.3,28.59,WSW,242,2.7,3.1,57,0.04,,BKN085,0.08,VWS V14.01,2013-05-11 23:06:00,
2013-05-11 19:11:00,63.9,48.3,28.59,SW,236,2.2,2.2,57,0.04,,BKN085,0.08,VWS V14.01,2013-05-11 23:11:00,
2013-05-11 19:16:00,63.9,48.3,28.59,West,271,4.9,4.9,57,0.04,,BKN085,0.08,VWS V14.01,2013-05-11 23:16:00,
2013-05-11 19:21:00,64.2,47.7,28.59,West,264,0.0,2.7,55,0.04,,BKN085,0.08,VWS V14.01,2013-05-11 23:21:00,
2013-05-11 19:26:00,64.2,47.2,28.59,SW,231,2.7,3.1,54,0.00,,BKN085,0.08,VWS V14.01,2013-05-11 23:26:00,
2013-05-11 19:32:00,64.8,45.7,28.59,West,262,2.7,3.1,50,0.00,,BKN085,0.08,VWS V14.01,2013-05-11 23:32:00,
2013-05-11 19:37:00,65.1,45.5,28.59,West,269,3.1,3.1,49,0.00,,BKN085,0.08,VWS V14.01,2013-05-11 23:37:00,
2013-05-11 19:42:00,64.9,46.9,28.59,West,276,2.7,2.7,52,0.00,,BKN085,0.08,VWS V14.01,2013-05-11 23:42:00,
2013-05-11 19:47:00,64.8,47.2,28.59,West,269,2.7,2.7,53,0.00,,BKN085,0.08,VWS V14.01,2013-05-11 23:47:00,
2013-05-11 19:52:00,64.6,46.6,28.59,West,274,2.7,3.6,52,0.00,,BKN085,0.08,VWS V14.01,2013-05-11 23:52:00,
2013-05-11 19:57:00,64.6,45.5,28.59,WSW,254,3.6,3.6,50,0.00,,BKN085,0.08,VWS V14.01,2013-05-11 23:57:00,
2013-05-11 20:02:00,64.9,45.3,28.59,WSW,252,5.8,5.8,49,0.00,,BKN110,0.08,VWS V14.01,2013-05-12 00:02:00,
2013-05-11 20:07:00,65.3,44.6,28.59,WSW,254,4.0,4.0,47,0.00,,BKN110,0.08,VWS V14.01,2013-05-12 00:07:00,
2013-05-11 20:12:00,65.5,43.6,28.59,South,187,4.0,4.0,45,0.00,,BKN110,0.08,VWS V14.01,2013-05-12 00:12:00,
2013-05-11 20:18:00,65.7,43.8,28.59,SW,220,2.7,3.6,45,0.00,,BKN110,0.08,VWS V14.01,2013-05-12 00:18:00,
2013-05-11 20:23:00,65.7,43.8,28.59,WSW,251,3.1,6.3,45,0.00,,BKN110,0.08,VWS V14.01,2013-05-12 00:23:00,
2013-05-11 20:28:00,65.5,44.2,28.59,West,271,2.7,3.1,46,0.00,,BKN110,0.08,VWS V14.01,2013-05-12 00:28:00,
2013-05-11 20:33:00,65.5,44.7,28.59,West,263,4.0,4.0,47,0.00,,BKN110,0.08,VWS V14.01,2013-05-12 00:33:00,
2013-05-11 20:38:00,65.3,44.0,28.59,SW,234,2.7,3.6,46,0.00,,BKN110,0.08,VWS V14.01,2013-05-12 00:38:00,
2013-05-11 20:43:00,65.5,45.3,28.59,WSW,255,2.2,2.7,48,0.00,,BKN110,0.08,VWS V14.01,2013-05-12 00:43:00,
2013-05-11 20:48:00,65.1,43.8,28.59,West,264,3.1,3.1,46,0.00,,BKN110,0.08,VWS V14.01,2013-05-12 00:48:00,
2013-05-11 20:53:00,65.3,43.4,28.59,WSW,246,3.6,3.6,45,0.00,,BKN110,0.08,VWS V14.01,2013-05-12 00:53:00,
2013-05-11 20:58:00,65.5,43.6,28.59,West,264,0.0,3.6,45,0.00,,BKN110,0.08,VWS V14.01,2013-05-12 00:58:00,
2013-05-11 21:03:00,65.5,44.7,28.59,West,263,0.0,3.1,47,0.00,,SCT110,0.08,VWS V14.01,2013-05-12 01:03:00,
2013-05-11 21:08:00,65.3,44.0,28.59,West,259,2.7,4.0,46,0.00,,SCT110,0.08,VWS V14.01,2013-05-12 01:08:00,
2013-05-11 21:13:00,65.1,43.3,28.59,WSW,240,4.9,4.9,45,0.00,,SCT110,0.08,VWS V14.01,2013-05-12 01:13:00,
2013-05-11 21:18:00,65.3,43.4,28.59,WSW,248,2.2,2.7,45,0.00,,SCT110,0.08,VWS V14.01,2013-05-12 01:18:00,
2013-05-11 21:23:00,65.1,43.8,28.61,West,267,2.7,3.1,46,0.00,,SCT110,0.08,VWS V14.01,2013-05-12 01:23:00,
2013-05-11 21:29:00,65.1,43.8,28.61,West,281,3.6,4.0,46,0.00,,SCT110,0.08,VWS V14.01,2013-05-12 01:29:00,
2013-05-11 21:34:00,64.9,43.7,28.61,West,263,5.4,5.4,46,0.00,,SCT110,0.08,VWS V14.01,2013-05-12 01:34:00,
2013-05-11 21:39:00,64.9,44.2,28.61,West,278,2.7,3.1,47,0.00,,SCT110,0.08,VWS V14.01,2013-05-12 01:39:00,
2013-05-11 21:44:00,64.9,44.2,28.61,WSW,258,3.6,4.0,47,0.00,,SCT110,0.08,VWS V14.01,2013-05-12 01:44:00,
2013-05-11 21:49:00,65.1,43.8,28.61,SW,225,3.1,3.1,46,0.00,,SCT110,0.08,VWS V14.01,2013-05-12 01:49:00,
2013-05-11 21:54:00,65.3,44.0,28.61,SW,228,3.1,3.6,46,0.00,,SCT110,0.08,VWS V14.01,2013-05-12 01:54:00,
2013-05-11 21:59:00,65.5,44.2,28.61,SW,233,4.5,7.6,46,0.00,,SCT110,0.08,VWS V14.01,2013-05-12 01:59:00,
2013-05-11 22:04:00,65.5,44.2,28.61,SSW,201,3.6,5.8,46,0.00,,SCT075,0.08,VWS V14.01,2013-05-12 02:04:00,
2013-05-11 22:09:00,65.1,43.8,28.59,West,273,3.1,3.1,46,0.00,,SCT075,0.08,VWS V14.01,2013-05-12 02:09:00,
2013-05-11 22:15:00,64.8,44.1,28.59,WNW,285,4.0,4.0,47,0.00,,SCT075,0.08,VWS V14.01,2013-05-12 02:15:00,
2013-05-11 22:20:00,64.6,43.9,28.59,WNW,285,2.2,2.2,47,0.00,,SCT075,0.08,VWS V14.01,2013-05-12 02:20:00,
2013-05-11 22:25:00,64.4,44.3,28.61,WSW,253,3.1,4.9,48,0.00,,SCT075,0.08,VWS V14.01,2013-05-12 02:25:00,
2013-05-11 22:30:00,64.2,44.7,28.61,SW,225,3.1,3.1,49,0.00,,SCT075,0.08,VWS V14.01,2013-05-12 02:30:00,
2013-05-11 22:35:00,64.0,44.5,28.61,West,274,0.0,2.2,49,0.00,,SCT075,0.08,VWS V14.01,2013-05-12 02:35:00,
2013-05-11 22:40:00,63.9,44.9,28.61,West,263,2.7,2.7,50,0.00,,SCT075,0.08,VWS V14.01,2013-05-12 02:40:00,
2013-05-11 22:45:00,63.5,44.5,28.61,West,277,2.2,2.7,50,0.00,,SCT075,0.08,VWS V14.01,2013-05-12 02:45:00,
2013-05-11 22:50:00,63.5,44.0,28.61,WSW,237,0.0,3.1,49,0.00,,SCT075,0.08,VWS V14.01,2013-05-12 02:50:00,
2013-05-11 22:55:00,63.3,43.8,28.61,WSW,247,2.2,3.1,49,0.00,,SCT075,0.08,VWS V14.01,2013-05-12 02:55:00,
2013-05-11 23:01:00,63.3,43.8,28.61,West,270,2.7,2.7,49,0.00,,SCT075,0.08,VWS V14.01,2013-05-12 03:01:00,
2013-05-11 23:06:00,63.5,44.0,28.61,WSW,242,2.7,2.7,49,0.00,,BKN070,0.08,VWS V14.01,2013-05-12 03:06:00,
2013-05-11 23:11:00,63.3,44.4,28.61,SW,225,2.7,2.7,50,0.00,,BKN070,0.08,VWS V14.01,2013-05-12 03:11:00,